Other Public Products
Issued by NWS Grand Forks, ND

Home | Current Version | Previous Version | Graphics & Text | Print | Product List | Glossary On
Versions: 1 2 3 4 5 6 7 8 9 10 11 12 13 14 15 16 17 18 19 20 21 22 23 24 25 26 27 28 29 30 31 32 33 34 35 36 37 38 39 40 41 42 43 44 45 46 47 48 49 50
000
FPUS83 KFGF 291910
OPUFGF
PRAIRIE TO PINES WEATHER ROUNDUP
NATIONAL WEATHER SERVICE EASTERN NORTH DAKOTA/GRAND FORKS ND
200 PM CDT FRI AUG 29 2014

 **SATELLITE DATA USED TO AUGMENT SKY COVER AT AUTOMATED STATIONS**
 *****  WEATHER ACROSS EASTERN NORTH DAKOTA  *****

CITY           SKY/WX    TMP DP  RH WIND       PRES   REMARKS
GRAND FORKS    CLOUDY    71  65  81 CALM      29.76S
GRAND FORKS AF CLOUDY    70  69  99 NE1       29.77S
GRAND CITY NWS   N/A     72 N/A N/A W6          N/A
BUXTON         NOT AVBL
DEVILS LAKE    CLOUDY    64  54  68 N26G32    29.82R
FARGO          CLOUDY    71  65  81 CALM      29.76F
WAHPETON ARPT  CLOUDY    70  63  78 W7        29.78S
$$

 *****  WEATHER ACROSS CENTRAL AND WESTERN NORTH DAKOTA  *****

CITY           SKY/WX    TMP DP  RH WIND       PRES   REMARKS
JAMESTOWN      CLOUDY    72  63  73 NW14      29.80R
BISMARCK       CLOUDY    70  60  70 N17G23    29.90S
MINOT          CLOUDY    66  55  67 N16       29.93R
MINOT AFB      CLOUDY    65  55  68 N16       29.93R
GARRISON         N/A     67  56  67 N12G22    29.92R
WILLISTON      PTSUNNY   70  51  51 N10       29.98S
DICKINSON      CLOUDY    65  55  70 NW13G21   29.97S
HETTINGER      PTSUNNY   70  57  63 NW15G25   29.97S
$$

 *****  OTHER OBSERVATIONS NORTHEAST NORTH DAKOTA  *****

CITY           SKY/WX    TMP DP  RH WIND       PRES   REMARKS
WALHALLA         N/A     61  61 100 N18G30    29.84R
LANGDON        CLOUDY    61  55  82 N18G30    29.84R
CAVALIER       LGT RAIN  64  63  94 N15G22    29.80R
GRAFTON        MOCLDY    72  66  83 NW5       29.76S
CANDO          CLOUDY    63  57  82 N20G26    29.88R
FORT TOTTEN      N/A     64  60  87 N8        29.95
ROLLA          CLOUDY    57  57 100 N18G24    29.92R
RUGBY          CLOUDY    66  54  63 NE16      29.89R
 ***** THE ABOVE OBSERVATIONS ARE NON NWS ARE NOT QUALITY
        CONTROLLED AND MAY MIS-REPORT RAIN FOR SNOW...
$$

 *****  OTHER OBSERVATIONS SOUTHEAST NORTH DAKOTA *****

CITY           SKY/WX    TMP DP  RH WIND       PRES   REMARKS
COOPERSTOWN    NOT AVBL
VALLEY CITY    CLOUDY    73  66  78 NW12      29.78S
OAKES            N/A     73  68  83 NW10      29.79S
GWINNER        CLOUDY    72  70  94 W5        29.80F
SHEYENNE NWR     N/A     73  67  80 SW3       29.95S
BUFFALO        NOT AVBL
WYNDMERE       NOT AVBL
 ***** THE ABOVE OBSERVATIONS ARE NON NWS ARE NOT QUALITY
       CONTROLLED AND MAY MIS-REPORT RAIN FOR SNOW...
$$

  *****  WEATHER ACROSS NORTHERN MINNESOTA  *****

CITY           SKY/WX    TMP DP  RH WIND       PRES   REMARKS
FLAG ISLAND    CLOUDY    66  63  88 CALM      29.76R
WARROAD        CLOUDY    70  64  83 CALM      29.77R
ROSEAU         PTSUNNY   70  64  83 NW7       29.77R
HALLOCK        DRIZZLE   68  66  94 CALM      29.76S
THF RVR FALLS  CLOUDY    70  64  83 W9        29.77R
HALSTAD          N/A     72  64  77 CALM        N/A
FOSSTON        CLOUDY    70  63  78 CALM      29.77S
BAUDETTE       CLOUDY    67  63  87 S5        29.77R
WASKISH        CLOUDY    66  66 100 CALM      29.77S
CROOKSTON      CLOUDY    68  64  88 W6        29.77S
$$
  *****  WEATHER ACROSS CENTRAL AND WEST MINNESOTA  *****

CITY           SKY/WX    TMP DP  RH WIND       PRES   REMARKS
BEMIDJI        CLOUDY    68  64  87 S5        29.77S
PARK RAPIDS    CLOUDY    68  65  90 CALM      29.78S
WADENA         CLOUDY    66  64  94 CALM      29.78S
DETROIT LAKES  CLOUDY    70  66  88 S6        29.79S
MOORHEAD       CLOUDY    70  70 100 W5        29.78S
FERGUS FALLS   CLOUDY    70  64  83 CALM      29.77F
ELBOW LAKE     CLOUDY    69  66  89 W5        29.78S
MORRIS MN      PTSUNNY   73  66  78 NW6       29.78R
STAPLES        CLOUDY    68  64  88 CALM      29.78S
WHEATON        PTSUNNY   72  64  78 CALM      29.79S
$$
  *****  WEATHER ELSEWHERE ACROSS MINNESOTA  *****

CITY           SKY/WX    TMP DP  RH WIND       PRES   REMARKS
DULUTH         LGT RAIN  64  61  90 S6        29.78F FOG
INTRNTL FALLS  CLOUDY    68  61  78 SE5       29.78S
ELY            CLOUDY    63  59  88 E8        29.79F
CLOQUET        LGT RAIN  64  63  94 CALM      29.78S
BRAINERD       CLOUDY    67  65  93 CALM      29.77F
HIBBING        CLOUDY    65  61  87 S3        29.79S
ALEXANDRIA     CLOUDY    70  66  87 W3        29.80R
SAINT CLOUD    CLOUDY    72  69  90 SE16      29.76F
MINNEAPOLIS    CLOUDY    79  68  69 SW9       29.77F
$$

  *****  WEATHER ACROSS SOUTH DAKOTA  *****

CITY           SKY/WX    TMP DP  RH WIND       PRES   REMARKS
SIOUX FALLS    CLOUDY    75  69  81 S10       29.78F
BROOKINGS      NOT AVBL
WATERTOWN      PTSUNNY   73  65  75 NW6       29.80F
HURON          PTSUNNY   78  66  66 VRB5      29.79F
SISSETON         N/A     77  68  73 CALM      29.77F
ABERDEEN       PTSUNNY   74  68  81 VRB6      29.80S
MITCHELL       PTSUNNY   77  68  73 NW8       29.80F
PIERRE         SUNNY     80  61  52 N21G29    29.85R
MOBRIDGE       MOSUNNY   75  57  53 N16       29.84R
RAPID CITY     PTSUNNY   73  52  47 NW18      30.01S
$$

  *****  SOME WEATHER IN NEARBY STATES *****

CITY           SKY/WX    TMP DP  RH WIND       PRES   REMARKS
GLASGOW MT     MOSUNNY   66  52  60 NW5       30.02F
GREAT FALLS MT SUNNY     72  45  37 CALM      29.98F
CHEYENNE WY    SUNNY     73  45  36 N12G18    30.15F
SCOTTSBLUFF NE MOSUNNY   76  57  51 W6        30.03F
OMAHA NE       CLOUDY    76  70  82 SE7       29.79F
DES MOINES IA  CLOUDY    82  69  64 SW13      29.80F
DAVENPORT IA   SUNNY     85  72  65 S12       29.88F HX  91
CHICAGO IL     PTSUNNY   85  70  60 S15       29.94F
EAU CLAIRE WI  MOSUNNY   80  71  74 S10       29.80F
LA CROSSE WI   SUNNY     83  70  64 S14       29.81F
$$

  *****  SOME NATIONAL WEATHER *****

CITY           SKY/WX    TMP DP  RH WIND       PRES   REMARKS
LA GUARDIA NY  MOSUNNY   76  50  40 NE10      30.17F
RALEIGH NC     CLOUDY    82  70  66 NE7       30.13F
ATLANTA GA     MOSUNNY   91  57  31 VRB7      30.07F
NEW ORLEANS LA LGT RAIN  76  73  91 S5        29.97F
OKLAHOMA CITY  LGT RAIN  80  66  62 S12       29.94S
ALBUQUERQUE NM MOSUNNY   79  43  27 S6        30.16F
SALT LAKE CITY MOSUNNY   84  43  23 S13       30.06F
LOS ANGELES CA MOSUNNY   77  63  61 W8        29.88F
BOISE ID       SUNNY     83  42  23 VRB3      29.96F
SEATTLE WA     CLOUDY    65  50  58 SW7       30.00F
$$

*** WEATHER ACROSS MANITOBA...SASKATCHEWAN AND ONTARIO ***
                ***ONTARIO***

CITY           SKY/WX    TMP DP  RH WIND       PRES   REMARKS
GERALDTON      LGT RAIN  61  57  88 S8        29.88S FOG
THUNDER BAY    LGT RAIN  61  59  94 E10       29.84F FOG
SIOUX LOOKOUT  PTSUNNY   66  63  88 S9        29.77F
TORONTO        PTSUNNY   72  48  43 E9        30.16F
BIG TROUT LK   SUNNY     66  54  63 W6        29.75S
PICKLE LAKE    PTSUNNY   68  61  77 SW7       29.75F
DRYDEN         CLOUDY    64  63  94 S10       29.78S
KENORA         DRIZZLE   64  64 100 W3        29.78S FOG
$$
                *** MANITOBA***

CITY           SKY/WX    TMP DP  RH WIND       PRES   REMARKS
BRANDON        NOT AVBL
DAUPHIN        SUNNY     64  50  59 N6        29.94S
ISLAND LAKE    PTSUNNY   61  54  77 W6        29.83F
PILOT MOUND      N/A     59  57  94 N14         N/A
THE PAS        MOSUNNY   61  39  44 NW9       29.95F
THOMPSON       PTSUNNY   57  41  54 NW9G17    29.89S
WINNIPEG       LGT RAIN  61  55  82 N20G26    29.84R
LYNN LAKE      CLOUDY    52  39  62 MISG      29.93S
CHURCHILL      MOSUNNY   55  39  54 NW16G23   29.74R
GILLAM         PTSUNNY   57  45  62 NW14      29.82S
$$
                ***SASKATCHEWAN***

CITY           SKY/WX    TMP DP  RH WIND       PRES   REMARKS
ESTEVAN        PTSUNNY   68  50  52 N5        29.98F
KINDERSLEY     NOT AVBL
LLOYDMINSTER   NOT AVBL
PRINCE ALBERT  MOSUNNY   63  41  45 VRB10     30.00F
REGINA         MOSUNNY   66  50  55 N10       30.01F


USA.gov is the U.S. government's official web portal to all federal, state and local government web resources and services.